Temp
61 61 61 61 61 61 61 61 60 61 61 61 61 61 61 61 61 57 50 59 65 69 71 73 73 75 74 67 72 75 59 57 60 65 71 81 81 88 92 88 91 92 87 89 92
61 61 61 61 61 60 61 60 60 60 60 60 61 61 61 61 54 51 64 70 70 72 69 67 66 71 65 65 67 65 59 61 70 74 74 81 81 86 84 83 83 88 91 94 94
60 60 61 60 60 60 60 60 59 60 60 60 61 60 60 59 51 62 76 70 73 74 74 73 72 70 61 65 67 67 61 67 73 77 80 80 81 86 80 75 83 83 86 91 91
60 60 60 60 60 59 59 60 60 59 60 60 60 60 60 56 49 73 74 74 72 74 73 69 66 58 59 61 69 60 70 73 74 77 79 78 84 83 78 78 87 88 88 86 82
59 60 60 59 59 59 59 59 59 59 59 59 60 60 55 51 55 77 73 74 74 73 70 67 62 61 56 65 68 66 70 76 78 76 76 78 76 78 77 83 86 88 88 85 80
58 59 59 59 59 59 58 58 58 59 58 58 59 60 52 47 77 77 77 73 76 70 69 68 67 69 66 67 65 71 72 74 74 75 74 72 74 73 77 82 83 85 82 82 83
58 58 58 58 59 59 58 58 58 58 59 59 60 61 54 54 80 78 79 73 75 75 70 75 76 70 71 65 74 73 65 70 73 72 69 73 68 70 77 82 79 81 83 82 83
58 58 58 58 58 58 59 58 58 58 59 60 60 59 50 74 76 74 79 79 81 81 78 81 81 72 66 71 72 63 61 52 66 72 74 70 58 72 77 76 75 79 81 81 79
58 58 58 58 58 58 58 57 58 60 60 60 55 52 54 77 75 82 81 79 81 82 81 88 76 67 68 59 54 57 49 54 62 72 72 68 60 72 77 77 74 74 75 79 78
58 57 57 57 58 57 56 56 58 58 59 62 64 53 61 68 80 84 84 84 78 77 74 70 64 57 56 51 43 51 52 58 58 69 70 65 64 70 75 74 74 73 73 75 76
58 57 57 57 57 56 54 54 52 52 59 56 61 63 72 81 85 80 85 80 77 70 58 64 53 49 56 61 64 64 60 60 65 72 68 66 65 68 71 70 69 70 72 72 74
57 57 57 57 56 56 54 49 62 67 58 63 69 67 75 80 73 78 84 70 67 58 64 58 51 63 68 68 66 64 59 58 64 70 65 61 62 68 69 68 69 69 70 71 72
56 56 56 56 56 52 50 56 69 71 59 67 70 67 71 76 72 73 78 72 65 60 60 55 62 71 68 66 64 62 58 57 58 65 65 61 55 61 68 69 72 71 71 71 72
56 56 56 56 51 59 57 65 65 65 48 61 68 72 73 74 67 81 81 74 66 60 63 60 69 69 67 64 64 54 66 65 63 56 45 60 42 56 62 66 70 71 69 70 71
56 56 56 55 50 55 69 76 70 65 35 66 70 81 75 67 71 72 81 74 63 63 63 59 63 63 62 64 68 60 68 63 62 54 49 54 44 51 61 59 66 71 70 69 71
56 56 56 58 53 59 69 72 68 47 38 61 70 66 63 67 69 74 72 75 73 64 65 63 71 68 65 70 69 70 62 59 55 49 38 49 47 49 57 61 64 68 74 72 71
56 56 54 61 59 73 72 62 46 40 63 56 63 66 63 62 64 67 64 60 55 50 51 59 62 68 71 62 65 60 48 37 35 36 36 54 49 54 61 68 71 72 69 69 70
54 53 54 63 68 69 64 51 41 56 60 66 67 68 60 65 63 66 61 55 60 58 52 48 46 61 69 61 56 56 50 38 31 32 40 55 47 55 67 69 72 71 69 69 66
52 59 62 67 69 68 56 45 47 59 64 61 64 59 58 63 60 62 60 59 63 60 48 47 51 67 70 69 64 56 48 56 44 44 37 43 51 60 67 68 68 70 69 66 64
49 55 63 74 72 64 51 48 56 67 66 64 54 59 53 57 53 53 55 62 62 66 62 54 44 61 65 67 65 59 63 47 44 30 29 41 46 48 55 57 61 66 64 64 65
50 55 70 75 70 56 45 54 57 70 68 60 56 54 56 56 57 56 56 59 60 61 61 54 48 50 56 52 50 54 52 52 49 42 30 29 41 57 55 56 54 58 64 60 61
53 51 71 72 54 53 47 52 60 66 67 64 62 59 54 54 51 53 52 56 62 61 53 52 46 41 49 57 60 56 51 49 38 35 38 36 40 55 56 58 59 57 61 62 64
48 55 70 68 49 47 51 54 62 64 61 60 57 57 57 50 45 52 54 60 61 55 47 49 41 33 40 49 55 46 51 46 41 42 38 34 39 56 58 54 57 55 58 62 63
49 49 59 59 59 53 52 56 58 66 61 61 57 57 50 46 49 48 52 58 60 55 56 52 42 38 31 41 47 44 50 49 44 35 38 38 43 48 52 52 53 55 56 60 61
51 51 56 47 52 52 54 55 55 52 59 58 53 52 47 38 43 43 48 50 55 55 51 47 36 41 43 47 49 47 47 50 42 42 36 43 45 50 55 50 53 56 58 61 61
48 50 54 51 55 54 50 52 53 53 52 50 47 50 47 38 46 41 44 43 43 46 46 46 36 39 38 46 47 45 49 50 50 51 50 50 48 59 57 54 55 56 58 59 58
55 56 52 50 52 51 51 53 54 54 55 56 51 46 44 47 49 48 47 46 46 43 41 42 38 33 30 45 39 35 45 49 51 53 51 45 49 53 51 54 53 54 57 59 60
MSLP
1018.25 1017.86 1017.49 1017.11 1016.71 1016.36 1016.12 1015.92 1015.77 1015.64 1015.44 1015.24 1014.99 1014.69 1014.43 1014.17 1013.85 1013.62 1012.49 1009.88 1009.81 1009.58 1009.35 1009.46 1009.39 1009.13 1009.29 1009.20 1008.68 1008.45 1008.53 1007.51 1006.61 1005.39 1003.44 1002.00 1000.97 1000.20 1001.01 1001.18 1002.41 1001.52 1001.89 1002.14 1002.74
1018.45 1017.98 1017.47 1017.09 1016.67 1016.26 1015.91 1015.65 1015.41 1015.12 1014.94 1014.88 1014.76 1014.62 1014.48 1014.34 1014.16 1012.46 1008.44 1008.27 1008.18 1008.77 1009.41 1009.40 1009.10 1008.75 1008.84 1008.57 1008.33 1007.56 1007.23 1006.32 1005.67 1004.51 1002.91 1002.25 1001.67 1001.01 1001.09 1001.12 1001.09 1001.59 1002.17 1002.18 1002.25
1018.33 1017.88 1017.51 1017.06 1016.62 1016.24 1015.85 1015.52 1015.34 1015.06 1014.84 1014.81 1014.76 1014.75 1014.73 1014.60 1013.33 1008.60 1005.97 1006.76 1007.40 1008.24 1008.68 1008.63 1008.66 1008.71 1008.62 1008.26 1007.38 1006.86 1006.19 1005.71 1004.73 1003.79 1002.88 1002.36 1001.81 1001.42 1000.73 1001.30 1001.31 1001.65 1001.98 1001.78 1002.23
1018.24 1017.74 1017.26 1016.90 1016.54 1016.09 1015.62 1015.26 1015.00 1014.81 1014.58 1014.37 1014.38 1014.39 1014.24 1014.21 1011.10 1006.22 1005.69 1005.36 1006.98 1008.04 1008.45 1008.40 1008.34 1008.56 1007.69 1007.44 1006.60 1006.46 1005.36 1004.83 1004.11 1003.35 1002.61 1002.16 1001.77 1001.02 1001.03 1001.02 1001.08 1001.57 1002.12 1002.18 1002.73
1018.00 1017.45 1017.06 1016.60 1016.20 1015.80 1015.47 1015.08 1014.74 1014.49 1014.35 1014.22 1014.11 1014.12 1013.95 1013.00 1009.01 1005.94 1006.14 1005.90 1006.77 1007.58 1007.66 1007.82 1007.68 1007.96 1006.68 1006.29 1005.81 1005.37 1004.48 1003.97 1003.31 1002.81 1002.44 1002.23 1001.87 1001.22 1001.57 1001.49 1001.66 1001.55 1002.03 1002.37 1002.89
1017.59 1017.24 1016.77 1016.30 1015.88 1015.45 1015.01 1014.78 1014.50 1014.22 1014.07 1014.11 1013.98 1013.89 1013.73 1011.36 1005.76 1005.25 1005.73 1006.35 1006.49 1006.94 1007.06 1007.15 1006.18 1005.87 1005.61 1005.02 1004.83 1003.94 1003.59 1003.10 1002.60 1002.37 1002.16 1002.16 1001.86 1001.69 1001.61 1001.57 1001.79 1001.96 1002.15 1002.51 1002.98
1017.33 1016.97 1016.57 1016.11 1015.49 1015.01 1014.66 1014.23 1013.98 1013.76 1013.63 1013.64 1013.75 1013.46 1012.41 1008.46 1005.10 1005.21 1005.08 1005.45 1005.81 1006.04 1006.15 1005.59 1005.05 1005.32 1004.24 1004.11 1003.43 1003.29 1003.23 1002.42 1002.04 1001.89 1001.90 1001.77 1001.91 1001.66 1001.86 1001.86 1002.01 1002.26 1002.21 1002.60 1002.85
1017.17 1016.81 1016.29 1015.71 1015.29 1014.71 1014.15 1013.77 1013.46 1013.16 1013.02 1013.18 1013.40 1013.02 1010.60 1005.78 1004.92 1005.32 1004.95 1004.62 1004.81 1004.96 1005.02 1004.46 1004.10 1004.22 1004.10 1003.46 1002.92 1002.97 1002.66 1002.44 1001.89 1001.88 1001.67 1002.12 1002.02 1001.77 1001.64 1002.09 1002.29 1002.31 1002.53 1002.57 1002.88
1016.65 1016.24 1015.91 1015.42 1014.91 1014.34 1013.76 1013.21 1012.70 1012.35 1012.48 1012.88 1013.06 1012.37 1008.43 1004.48 1004.43 1003.71 1004.02 1003.95 1003.97 1004.10 1004.03 1003.52 1003.41 1003.64 1003.76 1003.90 1003.60 1002.96 1002.89 1002.48 1002.20 1001.69 1001.71 1001.80 1001.88 1001.66 1001.58 1001.85 1002.05 1002.26 1002.40 1002.67 1002.98
1016.23 1015.77 1015.23 1014.74 1014.45 1014.06 1013.31 1012.50 1011.81 1012.13 1012.21 1012.52 1011.54 1011.34 1007.09 1003.93 1003.09 1002.96 1002.95 1003.11 1003.55 1003.92 1004.00 1003.89 1004.09 1004.08 1004.24 1004.49 1004.10 1003.53 1002.92 1002.68 1002.34 1001.44 1001.26 1001.46 1001.56 1001.53 1001.39 1001.48 1001.62 1001.87 1002.25 1002.60 1003.16
1015.93 1015.25 1014.54 1014.05 1013.74 1013.69 1013.27 1012.06 1011.67 1011.56 1010.52 1008.59 1007.39 1006.25 1004.10 1002.85 1002.47 1002.63 1002.63 1002.83 1003.28 1003.74 1004.24 1004.17 1004.55 1004.55 1004.23 1003.83 1003.44 1002.92 1002.58 1002.29 1001.30 1000.56 1000.79 1000.87 1001.05 1001.27 1001.22 1001.20 1001.57 1001.77 1002.40 1002.59 1003.04
1015.41 1014.81 1014.22 1013.45 1013.13 1013.11 1013.38 1012.00 1008.14 1007.00 1007.00 1006.22 1005.36 1004.89 1003.62 1002.67 1002.27 1002.13 1002.32 1003.04 1003.32 1003.77 1003.86 1004.31 1004.12 1003.51 1003.25 1002.92 1002.73 1002.32 1002.18 1001.86 1001.09 1000.45 1000.53 1000.54 1000.72 1000.64 1000.89 1001.20 1001.46 1001.63 1002.03 1002.24 1002.60
1014.92 1014.21 1013.57 1012.76 1012.20 1012.03 1011.76 1009.39 1007.28 1006.69 1006.16 1003.85 1003.16 1003.35 1002.75 1002.60 1001.81 1001.69 1002.06 1002.67 1003.17 1003.66 1003.59 1003.72 1002.81 1002.64 1002.30 1001.96 1001.91 1001.75 1001.74 1001.61 1001.65 1000.98 1000.88 1001.26 1001.41 1001.31 1000.96 1000.83 1001.00 1001.18 1001.31 1001.63 1002.04
1014.38 1013.57 1013.01 1012.10 1011.57 1010.16 1009.76 1007.01 1006.85 1007.56 1006.55 1002.76 1001.22 1001.15 1001.98 1002.24 1001.87 1001.38 1001.57 1002.39 1002.91 1003.25 1003.19 1002.83 1001.99 1001.79 1001.42 1001.41 1001.24 1001.40 1001.30 1001.33 1002.06 1002.32 1002.58 1001.97 1002.39 1001.69 1001.11 1000.89 1000.84 1000.81 1000.98 1001.24 1001.46
1013.80 1013.08 1012.36 1012.76 1011.64 1009.52 1007.01 1006.11 1006.00 1007.29 1005.48 1001.68 1000.62 1000.02 1000.90 1002.09 1001.45 1000.90 1001.33 1001.85 1002.44 1002.82 1003.09 1002.48 1001.73 1001.47 1000.97 1000.72 1000.85 1001.20 1001.35 1002.01 1002.51 1003.17 1003.15 1002.93 1003.31 1002.29 1001.50 1001.10 1000.63 1000.40 1000.48 1000.51 1000.79
1013.06 1012.68 1012.06 1010.74 1011.14 1007.94 1006.45 1006.21 1006.06 1006.59 1004.11 1001.13 1000.39 1000.61 1001.50 1002.01 1001.56 1001.04 1001.27 1001.51 1002.01 1002.71 1002.64 1002.47 1001.54 1001.50 1000.88 1000.66 1000.71 1001.13 1001.73 1002.48 1003.12 1003.87 1004.27 1004.00 1003.60 1002.71 1001.64 1000.50 999.96 999.43 999.44 999.79 1000.40
1012.20 1011.35 1011.85 1010.66 1008.67 1006.35 1006.26 1006.46 1006.74 1005.31 1002.93 1001.74 1000.18 1000.53 1001.21 1001.57 1001.62 1001.47 1001.63 1001.91 1002.47 1003.12 1003.04 1002.63 1001.92 1001.47 1001.22 1001.02 1001.01 1001.72 1002.39 1004.22 1004.91 1005.21 1004.85 1004.24 1003.67 1002.55 1000.66 1000.11 999.65 998.83 998.88 999.84 1000.88
1011.54 1010.00 1008.97 1008.36 1007.28 1007.26 1006.94 1006.93 1006.12 1004.07 1002.14 1001.46 1000.53 1000.36 1001.14 1000.67 1001.15 1001.25 1001.74 1002.25 1002.66 1003.12 1003.33 1003.22 1002.80 1001.63 1001.18 1001.37 1001.79 1002.15 1003.37 1004.81 1005.56 1006.18 1005.81 1004.68 1003.32 1001.98 1000.82 1000.13 999.28 999.72 999.49 1000.52 1001.92
1010.88 1009.04 1008.06 1006.56 1006.65 1006.96 1007.11 1006.55 1005.45 1003.25 1002.60 1002.10 1001.21 1000.79 1000.80 1001.33 1002.09 1001.87 1001.60 1002.09 1002.23 1003.23 1003.61 1003.40 1002.91 1002.13 1001.78 1001.75 1002.22 1002.72 1003.25 1004.03 1005.34 1006.24 1006.48 1005.62 1004.10 1002.47 1001.35 1000.58 1001.05 1000.92 1001.16 1002.04 1002.56
1011.31 1009.30 1006.93 1005.38 1005.77 1006.47 1006.93 1005.90 1004.93 1003.35 1003.06 1002.74 1002.32 1002.12 1002.51 1002.69 1003.16 1003.82 1003.01 1003.37 1003.00 1003.25 1003.41 1003.86 1003.74 1003.12 1002.53 1002.64 1002.74 1003.19 1003.54 1004.46 1005.69 1007.06 1007.24 1006.20 1004.96 1004.00 1003.49 1003.22 1002.86 1002.68 1003.27 1003.44 1003.53
1011.01 1008.63 1005.52 1004.89 1005.53 1006.62 1006.95 1005.88 1005.05 1003.73 1003.34 1003.32 1003.38 1003.61 1003.72 1003.82 1003.75 1003.75 1003.72 1004.03 1004.20 1004.18 1004.29 1004.60 1005.07 1004.66 1004.12 1004.00 1003.91 1004.13 1004.65 1005.36 1006.36 1007.41 1008.08 1007.41 1005.54 1004.36 1004.45 1004.36 1004.16 1004.74 1004.39 1004.60 1004.69
1010.84 1008.45 1005.19 1005.00 1006.16 1006.68 1007.53 1007.10 1005.49 1003.93 1003.89 1003.74 1003.91 1004.28 1004.79 1005.10 1005.26 1005.00 1005.05 1004.87 1005.38 1005.47 1005.71 1006.15 1006.22 1006.09 1005.35 1004.77 1004.57 1004.82 1005.29 1006.05 1007.18 1008.00 1007.79 1007.42 1006.08 1005.05 1004.96 1004.85 1004.79 1004.63 1005.19 1005.03 1004.59
1011.89 1008.76 1005.37 1005.30 1006.27 1007.23 1007.75 1006.68 1005.52 1004.37 1004.72 1005.00 1005.28 1005.87 1006.02 1006.49 1006.69 1006.21 1006.09 1006.43 1006.42 1006.76 1007.40 1007.48 1007.35 1007.54 1006.65 1005.84 1005.20 1005.79 1006.54 1007.63 1008.44 1008.81 1008.33 1008.13 1006.51 1005.31 1005.00 1005.06 1004.99 1005.20 1005.35 1005.28 1005.16
1012.53 1009.37 1006.86 1006.25 1006.51 1007.23 1007.38 1006.48 1005.42 1005.40 1005.74 1006.09 1006.56 1006.67 1007.37 1007.91 1007.94 1007.72 1007.24 1007.39 1007.60 1008.06 1008.52 1008.57 1008.79 1008.88 1008.61 1007.71 1007.07 1006.95 1006.87 1007.52 1008.65 1009.26 1008.47 1007.79 1006.71 1005.96 1005.31 1005.21 1005.30 1005.25 1005.08 1004.89 1004.94
1012.53 1009.89 1008.90 1007.99 1007.79 1007.82 1007.69 1007.15 1006.46 1006.45 1006.95 1007.09 1007.65 1008.21 1008.95 1009.35 1009.44 1009.00 1008.74 1008.74 1008.76 1008.97 1009.19 1009.75 1010.02 1009.82 1009.31 1008.73 1007.92 1007.06 1006.79 1007.01 1007.38 1007.73 1008.03 1006.95 1006.22 1005.70 1004.89 1005.02 1004.55 1004.31 1004.64 1004.64 1004.48
1012.75 1011.16 1010.04 1009.32 1008.24 1007.87 1007.45 1007.17 1007.04 1007.41 1007.89 1008.28 1008.76 1009.30 1009.77 1010.15 1010.14 1010.10 1009.90 1009.99 1009.87 1009.96 1010.34 1010.82 1010.94 1010.63 1010.01 1009.23 1008.13 1006.68 1006.07 1005.91 1005.69 1005.64 1005.60 1005.52 1004.70 1004.51 1004.03 1004.11 1004.23 1004.39 1004.42 1004.52 1004.38
1012.94 1011.77 1011.11 1009.83 1008.86 1008.21 1007.52 1007.48 1007.59 1007.87 1008.47 1008.86 1009.43 1009.80 1010.21 1010.43 1010.39 1010.30 1010.25 1010.34 1010.40 1010.52 1010.81 1011.42 1011.77 1011.60 1010.58 1009.44 1008.71 1006.54 1004.96 1004.53 1004.45 1004.36 1004.49 1004.76 1004.70 1004.19 1004.48 1004.37 1004.40 1004.54 1004.58 1004.51 1004.62
Wind_Speed
16 16 16 15 14 15 14 13 12 12 13 13 14 16 17 17 18 12 13 15 12 20 12 10 12 12 10 8 10 11 9 13 17 17 18 7 8 1 17 1 5 9 11 12 12
17 17 16 16 16 14 14 14 13 14 13 15 14 14 14 14 13 18 24 23 24 14 10 11 10 11 8 9 7 8 11 17 11 16 18 13 4 11 10 5 4 6 11 5 11
17 17 17 16 16 14 14 15 14 14 12 12 12 12 11 9 7 11 4 36 22 16 11 9 10 12 9 9 12 13 15 9 16 20 20 17 7 12 7 3 6 6 9 11 6
18 18 17 18 18 16 15 15 15 15 14 11 11 11 10 5 4 3 6 7 27 14 10 11 6 7 9 16 17 11 15 16 15 13 18 14 8 6 4 8 6 4 3 8 9
17 18 18 18 18 17 16 16 16 15 14 12 9 8 6 5 15 7 5 9 14 14 12 13 8 10 9 12 15 17 17 16 18 13 15 9 7 3 7 5 6 3 7 7 3
15 17 18 18 18 18 16 15 15 14 14 12 8 4 4 8 9 12 11 7 9 11 10 12 11 10 10 15 14 13 17 18 12 17 12 7 5 3 5 4 7 7 2 4 5
15 16 17 18 18 18 19 17 16 15 15 11 8 6 7 21 4 7 11 10 10 13 10 21 22 10 8 8 16 14 9 11 11 6 6 4 6 8 6 7 8 6 7 4 4
17 18 17 17 19 19 20 19 19 20 13 10 7 7 11 9 15 19 11 8 12 16 20 18 14 9 5 8 10 6 5 3 7 7 10 6 8 7 9 9 10 10 10 6 7
18 18 18 19 19 20 20 21 23 17 9 8 5 5 11 11 7 14 16 12 13 10 9 14 7 5 9 6 5 5 4 4 8 8 10 10 6 10 10 14 13 11 9 7 6
19 19 19 19 20 19 19 25 15 4 5 8 8 4 9 7 10 10 8 11 5 7 7 2 4 2 5 3 6 7 5 6 9 17 11 13 11 11 11 8 15 12 9 8 8
21 20 19 20 18 17 13 7 1 4 9 13 14 9 14 7 7 10 10 8 8 6 6 8 3 7 11 12 13 12 8 13 12 17 12 16 12 12 11 7 5 8 9 8 9
21 22 23 22 18 14 6 6 11 4 7 24 19 20 18 14 8 10 11 6 5 8 9 4 8 13 15 16 15 15 12 11 9 5 3 2 8 8 7 6 7 11 11 11 9
23 22 24 23 21 7 10 16 10 14 5 12 19 13 14 8 9 8 11 9 8 9 9 9 13 16 15 14 14 11 9 4 5 10 7 5 4 4 5 3 7 8 9 9 12
25 23 22 24 7 2 7 12 18 7 4 8 9 11 10 4 7 11 9 8 7 10 11 8 12 15 15 11 6 5 8 4 6 8 4 2 6 6 5 11 11 12 10 11 11
25 24 22 11 10 4 7 12 8 4 4 2 8 8 10 7 6 9 12 10 10 11 9 14 9 8 9 6 7 7 8 7 8 6 5 9 2 7 7 7 15 17 11 12 13
27 24 21 4 5 11 10 13 5 1 6 5 8 8 8 10 9 4 6 4 4 8 13 12 13 7 7 8 5 7 5 5 5 1 2 5 3 7 11 9 8 7 18 14 11
28 30 13 6 6 7 6 1 2 4 7 13 7 15 12 12 12 11 7 5 5 3 6 8 13 13 13 5 8 7 3 4 6 5 5 9 6 15 9 12 17 21 8 11 15
28 33 7 10 9 11 3 2 3 7 12 12 14 7 10 13 12 15 14 9 9 7 2 3 7 5 5 3 7 8 5 6 7 5 5 7 6 9 6 6 14 13 16 18 14
26 4 4 6 13 7 1 3 3 8 12 13 10 7 4 10 9 11 6 5 6 11 8 5 12 9 13 10 6 7 6 7 1 2 1 4 7 5 8 8 8 9 12 12 10
6 4 5 9 9 2 1 5 1 7 9 8 6 11 11 8 4 8 3 5 6 6 7 4 4 7 3 6 7 6 5 5 4 1 5 5 6 1 8 12 14 14 12 8 8
2 3 3 2 5 0 3 6 2 8 8 6 8 8 9 9 9 3 1 5 8 10 4 2 5 6 6 3 4 5 3 4 6 8 5 1 4 6 6 7 6 11 10 6 8
5 3 3 2 0 3 3 9 12 6 9 8 5 7 9 9 8 6 9 5 9 6 5 1 2 3 6 8 9 9 9 5 3 8 3 5 10 8 8 9 9 8 10 10 3
6 5 4 3 1 3 4 13 18 6 7 7 7 10 8 7 5 7 6 4 8 8 4 6 3 3 7 6 7 4 4 4 3 3 9 8 5 3 6 7 6 4 4 4 7
4 4 3 3 3 5 8 6 8 7 12 10 6 5 9 8 8 6 7 6 6 7 5 5 2 3 5 8 12 8 7 5 4 3 4 9 10 6 2 3 3 6 7 5 5
3 3 3 4 5 4 5 5 6 6 9 5 5 9 6 3 8 5 8 9 6 4 3 4 4 5 8 13 17 18 18 14 13 14 10 9 11 15 6 12 12 11 8 8 8
4 4 4 5 7 4 4 4 9 8 7 6 6 9 6 2 5 9 9 6 4 3 4 4 3 6 8 14 18 21 17 17 18 15 20 18 20 13 5 6 4 4 4 5 3
4 4 4 7 6 6 2 3 3 3 2 7 6 6 6 6 6 6 6 5 7 5 1 4 2 3 4 9 13 9 14 15 14 8 8 11 4 8 5 7 5 6 5 4 5
Wind_Direction
348 346 345 344 342 343 327 317 310 306 305 308 312 317 318 318 314 292 245 223 205 233 300 305 299 232 248 250 254 232 234 230 242 244 254 282 39 332 194 162 272 54 109 153 139
344 343 343 342 340 338 335 320 312 309 308 309 310 314 317 316 298 269 242 236 240 242 234 241 254 244 206 217 238 219 221 232 242 253 262 282 322 237 185 6 203 83 144 135 141
341 340 337 337 336 332 329 331 310 300 292 293 299 306 312 314 268 242 292 216 221 215 218 263 258 256 207 232 242 248 232 228 241 262 268 278 291 322 148 169 223 146 181 161 175
335 333 333 333 331 329 325 323 321 301 295 293 300 310 315 278 254 32 340 203 200 192 222 241 248 246 205 219 226 241 243 234 247 244 259 262 240 170 283 177 154 150 91 78 47
327 327 327 327 325 323 320 317 315 306 294 291 296 311 317 227 250 240 118 120 159 186 210 221 207 247 235 218 227 221 233 232 238 249 261 276 290 172 241 330 333 18 86 110 65
318 319 320 321 320 319 318 313 307 314 288 283 282 293 235 260 241 140 150 150 187 179 204 232 230 218 264 222 222 229 223 232 221 235 246 232 242 103 288 290 308 325 322 144 167
314 313 314 315 314 316 315 313 308 302 285 265 265 243 252 242 210 160 166 174 208 184 206 227 237 233 263 253 236 247 243 230 234 239 260 228 264 231 210 275 256 243 280 216 228
315 314 312 311 310 313 311 310 306 305 272 247 239 254 253 248 245 271 240 196 205 203 214 246 245 243 245 279 274 263 246 206 247 231 259 185 245 250 230 220 228 230 220 233 236
313 313 311 309 310 311 311 306 302 295 245 213 201 223 261 290 214 232 226 210 216 222 247 265 319 254 316 301 313 282 201 273 279 250 215 179 218 230 240 225 227 213 189 201 254
311 310 307 307 308 312 311 299 282 327 187 190 259 255 254 232 200 221 203 230 160 218 248 263 316 298 292 299 234 249 199 225 225 241 236 215 214 221 234 237 226 201 183 189 219
312 308 306 304 310 314 320 327 107 185 237 198 185 226 290 236 202 202 191 230 185 195 214 208 172 225 237 240 245 255 262 222 237 242 221 220 199 205 218 234 156 152 172 198 227
310 309 308 307 307 304 287 253 252 358 264 223 239 226 254 284 201 209 181 200 244 232 211 258 229 238 224 233 236 251 262 276 282 313 336 290 205 195 203 218 185 192 197 198 207
309 310 310 311 308 285 218 230 268 302 281 278 213 220 236 261 256 203 184 189 232 227 252 210 237 232 249 250 249 242 240 293 311 314 318 339 286 221 237 227 272 211 207 192 189
311 312 315 325 288 281 229 257 235 265 293 261 185 209 200 226 272 243 222 186 216 248 250 242 251 256 248 240 264 295 306 280 295 304 263 7 271 269 226 242 241 245 205 193 188
311 313 316 315 297 261 284 332 192 172 288 199 141 124 152 183 288 190 234 201 220 250 241 264 281 289 300 246 233 247 287 267 247 245 265 300 7 266 297 261 241 235 219 197 183
311 312 325 314 204 250 296 303 13 277 246 209 136 169 135 207 257 129 203 250 184 242 270 270 295 300 283 321 290 288 266 299 294 185 336 232 232 278 258 260 277 221 216 192 176
313 309 306 270 241 310 309 12 266 238 123 302 183 157 175 191 230 168 194 166 161 243 272 294 286 288 299 314 330 358 99 333 331 330 219 245 255 240 277 255 265 257 198 110 101
316 310 246 205 234 259 293 326 253 286 11 226 9 175 189 203 215 198 178 190 209 225 238 226 293 302 333 238 212 270 161 165 223 230 260 339 259 239 286 333 70 53 85 89 88
317 292 251 230 229 249 2 252 269 319 21 355 326 280 8 46 55 289 266 230 203 193 188 217 236 297 302 292 313 313 290 226 51 315 22 269 311 328 23 4 51 82 99 96 95
313 286 263 236 181 50 286 242 200 347 17 346 341 21 15 350 68 296 332 61 36 80 60 0 335 270 45 17 312 291 292 322 353 330 287 229 261 205 34 33 33 64 56 52 74
231 292 212 219 108 94 242 319 354 339 37 27 349 332 338 1 350 318 334 56 21 2 345 210 147 286 1 190 258 324 318 287 178 148 180 304 252 144 84 62 35 64 21 50 28
311 287 201 140 40 67 7 307 299 21 20 2 354 6 8 9 355 347 19 34 26 352 348 48 63 265 271 305 303 273 266 239 173 290 253 187 240 109 100 72 37 17 16 354 4
315 268 259 106 284 132 195 275 270 48 40 20 351 21 1 5 346 5 54 57 0 38 38 340 323 347 317 283 285 63 34 48 43 215 226 244 242 92 65 47 39 22 319 335 324
294 307 5 20 31 26 355 336 353 86 61 30 344 9 29 14 335 312 318 78 34 66 40 10 312 208 219 283 305 292 278 281 119 270 351 261 284 246 237 181 240 274 276 254 265
247 302 359 322 359 5 313 305 304 38 34 35 359 74 47 338 335 293 19 346 2 140 39 28 255 270 285 295 289 282 280 266 206 216 224 246 257 282 285 202 201 203 234 249 254
307 12 344 288 289 295 241 332 39 28 31 329 33 23 357 274 285 301 317 348 295 97 65 358 293 326 294 280 275 274 264 260 256 241 236 241 249 241 232 50 96 160 183 236 292
330 317 344 291 302 286 244 82 17 32 88 89 17 359 331 328 348 298 290 262 250 271 238 171 237 1 265 317 344 301 249 251 259 246 252 256 289 15 75 74 21 351 342 309 307